Wind_Speed
29 28 27 26 26 25 27 28 27 27 30 34 34 30 30 32 33 30 31 25 25 24 24 27 30 32 31 31 31 30 31 34 32 29 31 32 32 33 34 33 32 34 37 36 36 38 38 37 39
28 28 28 29 28 28 30 30 30 29 30 34 34 33 26 32 32 31 28 32 30 34 35 37 35 33 35 32 31 31 32 33 33 33 35 35 35 34 35 33 34 36 36 38 39 38 38 38 37
27 27 26 28 29 28 29 26 29 27 29 30 33 34 35 33 38 39 31 35 42 42 42 38 39 37 36 37 35 34 32 32 34 35 36 36 36 36 36 36 36 36 36 40 41 37 37 37 35
24 24 23 25 25 24 23 20 23 25 27 29 31 32 39 39 37 36 35 39 41 45 44 41 36 36 37 37 36 35 33 33 34 35 36 39 37 39 38 37 38 38 41 40 38 39 36 37 39
21 22 20 21 21 18 18 18 24 26 27 31 32 37 34 38 41 40 42 42 43 40 37 33 35 36 36 36 33 32 33 33 34 36 37 37 39 40 39 39 39 39 40 41 35 37 37 40 42
21 19 18 18 17 17 18 20 21 27 30 32 33 35 32 34 34 34 38 39 39 37 35 34 35 35 32 33 35 33 35 33 35 37 38 38 40 40 40 40 40 39 38 35 34 38 41 45 47
22 20 18 21 21 18 21 21 22 27 27 29 33 32 25 28 28 28 30 32 36 40 39 36 35 37 36 32 32 37 38 34 34 36 39 39 39 39 40 37 38 33 33 34 38 43 42 45 49
24 22 21 24 23 24 21 22 25 26 28 26 25 26 24 24 25 25 26 28 31 32 37 41 41 37 35 37 37 36 36 37 37 37 38 38 38 38 36 34 32 36 39 40 43 44 44 51 52
25 25 26 27 25 26 24 22 24 27 27 25 26 23 25 26 25 26 29 30 31 32 33 35 37 37 35 31 29 31 33 34 35 36 36 35 36 35 32 33 37 41 41 41 42 45 51 49 43
29 27 28 28 26 26 25 24 27 27 27 24 25 26 27 26 24 27 28 30 30 32 33 35 33 34 32 29 31 33 34 34 35 35 35 35 35 35 37 38 39 39 40 42 45 51 47 45 43
30 28 26 27 25 26 28 28 28 28 27 27 29 29 30 29 28 30 31 31 31 32 33 32 36 36 35 38 41 40 38 36 36 36 37 37 37 36 37 39 40 40 44 47 47 44 44 42 42
31 29 28 28 27 26 27 27 27 28 29 29 32 33 30 30 28 31 32 31 32 32 33 33 32 33 38 42 42 41 38 35 36 37 36 37 38 38 37 39 40 41 41 43 44 43 41 39 38
33 32 30 28 28 29 29 30 30 28 31 31 34 33 32 32 29 30 33 32 33 34 34 31 28 31 34 37 37 35 33 34 34 36 35 36 37 37 38 38 40 41 41 41 40 41 41 39 38
34 33 33 32 31 32 33 32 31 27 33 33 36 38 35 35 32 33 32 33 32 33 34 31 27 27 28 30 31 32 31 31 33 34 36 36 36 36 38 37 37 38 39 40 42 41 40 44 45
32 33 32 33 33 34 36 34 34 31 33 33 37 39 37 37 36 36 35 34 31 32 31 28 26 26 28 29 30 29 29 31 33 33 34 35 36 35 36 36 36 38 42 41 40 40 42 46 49
29 30 31 32 31 33 37 38 37 36 35 35 37 41 41 38 36 34 36 32 29 29 29 26 26 27 28 28 28 30 30 31 31 32 31 32 33 35 36 36 42 37 45 39 42 46 49 51 55
32 35 36 36 35 34 37 39 37 36 33 35 37 39 41 42 36 32 32 33 29 28 27 24 23 25 27 28 29 30 31 30 30 30 29 30 31 31 31 27 13 34 38 45 47 54 50 57 60
29 33 33 31 32 32 33 36 32 28 26 29 31 34 38 40 39 34 30 30 30 27 26 25 23 24 26 27 28 29 30 30 29 31 30 28 29 30 29 25 21 25 31 57 51 61 57 60 64
31 29 32 30 27 30 35 39 30 27 31 33 32 33 35 36 38 37 34 31 30 28 26 26 26 27 27 29 29 31 31 32 32 34 33 29 30 33 33 29 23 23 53 54 52 61 64 66 70
33 34 35 35 31 30 30 34 32 26 29 34 33 31 31 32 33 31 34 33 29 28 29 29 29 29 31 31 30 32 33 35 37 38 37 37 37 39 40 37 32 28 52 61 58 62 65 72 71
36 37 38 40 41 38 35 41 37 34 33 33 33 34 34 33 35 36 37 35 33 33 33 32 31 31 32 33 33 35 36 39 41 40 42 40 40 44 42 42 42 37 54 57 61 66 70 71 74
38 38 39 41 43 39 41 42 40 40 39 37 39 38 39 40 41 43 45 44 43 40 42 42 42 40 37 38 40 39 41 42 44 43 42 44 44 50 41 26 52 50 53 56 59 64 72 74 78
37 37 38 40 41 41 42 42 41 42 44 43 45 48 47 45 45 48 49 51 50 51 51 49 48 47 48 47 48 49 47 47 47 47 46 45 47 47 41 45 52 47 59 67 74 72 72 81 83
37 38 39 40 41 42 42 43 43 44 45 45 48 50 49 50 52 53 56 58 57 58 57 54 56 54 54 53 52 54 54 54 50 50 51 50 45 48 48 45 49 54 60 62 67 77 79 81 83
35 36 37 39 38 38 38 37 35 35 35 37 40 44 45 47 51 53 54 55 56 58 60 59 59 60 59 57 56 56 57 56 55 55 53 52 57 58 54 51 62 63 69 73 75 78 85 90 91
32 31 31 31 30 24 19 15 14 15 18 23 24 25 29 34 42 45 47 45 46 55 54 56 58 60 59 58 57 54 52 50 52 55 58 55 61 62 58 56 61 68 74 77 82 87 89 91 95
25 20 22 24 19 12 12 15 16 17 21 17 16 24 22 20 21 25 33 38 43 48 50 54 54 55 50 46 44 43 36 34 39 40 42 48 50 54 50 60 62 66 69 74 78 84 88 90 86
18 22 21 21 24 26 22 22 23 25 25 25 29 31 30 23 22 24 26 29 32 36 40 45 45 42 32 13 13 19 23 31 41 48 46 42 40 43 47 56 58 63 61 69 72 74 77 80 79
25 20 20 20 25 30 37 33 33 31 27 29 29 30 31 33 32 34 35 38 37 38 34 34 27 14 27 30 24 49 55 50 51 54 51 44 42 43 48 50 57 62 65 64 64 67 64 64 67
25 23 25 27 31 31 34 41 38 35 34 37 35 35 34 35 38 37 43 48 48 47 40 24 18 34 32 21 20 26 53 55 53 47 49 45 42 46 48 55 59 64 68 67 69 67 72 72 73
Wind_Direction
276 280 281 280 280 278 274 271 274 268 246 246 254 256 259 256 255 269 278 270 278 289 303 305 299 293 289 290 290 292 292 290 290 288 287 288 291 292 292 293 294 291 290 296 294 295 301 305 307
273 276 277 275 278 276 273 272 271 267 260 252 254 260 264 267 267 280 276 279 274 288 297 303 303 297 288 290 290 292 292 290 291 287 287 289 292 295 294 294 293 296 295 293 297 304 305 305 306
271 273 275 275 277 279 278 282 278 276 271 265 256 256 258 259 264 266 268 269 277 283 287 296 296 294 287 282 287 288 287 290 290 290 289 288 290 291 290 290 292 294 295 297 303 308 305 303 306
269 272 274 273 277 282 280 280 273 271 268 265 265 263 258 260 261 268 268 274 274 277 285 287 284 283 277 279 282 283 284 287 290 295 293 289 287 288 289 292 294 294 297 296 301 304 305 307 305
273 272 274 277 279 284 280 270 270 270 272 276 273 271 265 267 268 270 269 276 280 284 284 280 279 276 272 278 280 279 281 292 292 297 291 288 287 289 291 294 296 295 295 296 302 307 300 305 306
277 280 283 282 277 278 275 269 276 282 282 276 278 278 281 282 283 285 286 284 278 276 277 280 283 274 280 275 280 276 290 291 294 298 297 292 289 291 292 296 295 297 294 297 299 303 302 302 303
279 280 283 280 277 278 273 277 280 280 280 284 285 287 291 293 299 297 297 294 288 283 276 276 280 275 279 282 279 278 287 288 289 295 296 293 292 295 296 294 293 298 301 296 297 297 300 302 303
280 282 279 281 283 275 274 276 277 279 288 290 284 281 283 287 288 292 295 297 298 290 279 274 274 276 282 274 279 287 289 291 291 291 293 295 297 297 294 296 293 298 297 297 296 298 303 305 299
282 276 277 275 279 279 273 270 280 288 289 290 288 287 283 284 290 293 293 295 301 299 291 281 274 272 277 274 282 288 292 290 287 290 292 293 295 295 295 293 291 293 295 295 297 301 300 304 303
285 277 280 279 277 281 285 280 282 285 283 282 284 279 285 292 301 301 296 295 300 302 299 288 277 271 272 271 289 291 293 292 289 286 288 291 293 291 288 292 292 290 296 298 299 299 300 302 304
277 277 277 276 278 280 279 279 283 283 281 278 279 278 283 289 295 300 301 301 301 302 300 292 279 274 267 279 291 293 290 290 289 288 288 288 288 289 291 294 293 296 297 295 299 301 301 303 302
272 274 271 270 272 273 274 278 279 282 283 280 281 282 285 290 296 299 298 299 299 301 299 294 285 273 269 274 284 290 288 288 287 288 288 290 293 293 294 298 299 297 299 302 303 303 304 304 308
269 271 270 271 272 276 277 279 281 284 289 285 283 284 285 291 298 299 299 303 301 300 300 297 288 281 278 279 284 284 286 288 290 291 293 294 294 298 299 301 302 304 305 308 307 307 309 310 312
272 268 271 271 272 275 279 281 285 287 285 289 292 293 292 294 299 300 301 300 298 300 300 298 295 293 288 288 287 288 289 292 295 295 295 299 301 301 303 305 306 309 312 313 311 313 314 314 311
276 275 273 271 273 277 279 282 282 282 285 291 295 294 293 295 297 300 300 298 297 301 299 300 299 297 297 294 294 294 296 300 302 302 299 301 304 310 312 313 318 319 321 316 312 311 310 306 306
276 274 274 277 280 281 280 278 279 280 283 288 293 298 297 296 296 297 299 297 296 299 296 298 300 298 296 295 299 302 302 300 298 298 301 306 312 317 320 330 338 315 328 317 313 305 305 302 305
282 278 277 279 279 285 285 276 277 277 285 291 295 298 298 299 297 296 297 297 295 297 299 303 299 301 303 303 300 297 296 297 299 302 306 310 316 317 320 329 262 303 320 306 295 301 301 301 302
282 283 285 285 286 284 286 282 283 289 295 292 292 289 293 295 298 298 295 293 293 293 296 300 301 301 300 299 297 298 300 302 303 305 308 310 311 312 316 311 309 319 276 294 285 293 293 297 296
282 286 284 286 289 292 286 287 295 295 287 284 283 291 292 292 295 298 296 294 294 293 292 296 300 301 300 297 297 299 300 301 303 303 307 304 309 312 310 307 299 307 286 282 285 287 291 295 295
277 278 279 278 279 283 287 289 299 300 293 283 279 281 282 286 291 294 294 291 286 292 293 295 298 300 298 296 297 297 296 298 300 303 306 306 310 308 309 308 304 301 283 285 292 292 291 293 295
276 279 282 284 285 285 286 287 290 291 287 288 287 284 281 277 280 285 287 288 287 281 279 281 285 289 287 288 291 290 289 293 296 301 306 307 305 302 302 312 308 287 283 291 287 287 287 290 290
280 281 282 283 285 287 283 285 286 284 280 279 280 276 274 272 274 277 280 281 283 281 279 279 278 282 280 280 279 287 290 291 294 298 303 303 300 297 303 303 280 291 288 280 285 286 289 286 287
281 281 281 283 284 284 284 285 284 282 280 278 275 272 271 272 271 273 273 274 275 276 277 278 279 279 280 282 285 288 289 290 293 298 299 298 292 291 294 288 293 282 277 282 284 287 283 287 291
288 287 287 286 286 287 286 285 284 283 282 280 276 274 273 271 271 271 273 274 275 276 275 276 275 274 277 281 285 289 289 289 291 289 288 286 283 280 282 279 278 273 275 279 279 282 287 289 292
289 291 291 289 288 291 294 296 296 294 291 286 282 282 280 276 273 271 271 271 274 273 274 275 276 279 280 283 282 284 287 291 291 287 282 277 272 277 280 277 278 283 280 278 282 285 288 289 293
289 289 290 296 303 310 322 343 349 343 325 322 317 309 296 281 274 270 270 272 273 274 275 276 276 278 280 284 289 292 293 293 288 284 285 281 278 278 275 270 276 277 279 283 285 288 291 292 293
288 294 299 304 308 313 311 325 335 339 339 324 326 326 311 299 291 286 277 273 269 268 268 271 273 278 288 297 303 302 299 301 299 301 308 298 288 282 277 276 280 283 286 291 293 292 292 294 297
290 295 291 297 305 310 311 312 311 323 325 323 325 330 327 321 319 310 296 289 290 283 277 276 279 287 304 323 350 334 312 307 302 311 313 301 299 292 289 280 280 284 289 301 301 300 300 300 302
290 293 301 298 300 301 301 314 310 308 312 307 316 319 321 317 317 325 321 331 313 293 290 285 288 274 268 279 311 315 308 294 299 306 301 305 299 292 289 285 294 291 296 307 310 309 306 302 302
291 285 289 289 290 297 305 298 304 308 297 298 306 312 318 316 317 312 315 323 327 328 298 284 245 272 267 249 247 251 286 283 277 281 291 295 285 284 281 285 287 294 301 305 309 310 308 306 307
Height
10953 10954 10954 10953 10955 10955 10952 10950 10951 10950 10950 10948 10947 10949 10951 10949 10949 10947 10946 10946 10946 10945 10943 10941 10940 10939 10938 10936 10934 10933 10931 10929 10928 10926 10924 10922 10920 10918 10915 10912 10909 10908 10906 10904 10903 10901 10899 10896 10895
10948 10949 10949 10947 10949 10949 10947 10946 10944 10945 10945 10946 10945 10945 10944 10944 10943 10943 10942 10941 10940 10940 10938 10937 10935 10934 10933 10932 10930 10928 10927 10925 10923 10921 10919 10917 10915 10912 10909 10906 10905 10903 10901 10899 10897 10895 10893 10891 10890
10944 10945 10945 10942 10942 10944 10943 10943 10939 10941 10940 10940 10940 10939 10938 10938 10940 10940 10940 10939 10936 10934 10933 10932 10931 10928 10926 10926 10925 10923 10922 10920 10918 10916 10914 10912 10910 10907 10904 10901 10899 10897 10895 10893 10891 10889 10887 10886 10883
10940 10940 10940 10937 10937 10939 10939 10939 10936 10934 10933 10932 10933 10931 10933 10932 10934 10935 10936 10935 10931 10929 10927 10926 10924 10922 10921 10920 10918 10917 10916 10914 10912 10911 10909 10906 10903 10901 10898 10896 10894 10892 10889 10888 10885 10883 10881 10879 10877
10936 10936 10936 10933 10934 10934 10934 10933 10931 10931 10930 10929 10929 10923 10925 10925 10929 10929 10929 10928 10925 10922 10920 10918 10917 10915 10914 10914 10912 10911 10910 10908 10907 10905 10902 10899 10896 10894 10892 10889 10888 10886 10884 10882 10880 10878 10875 10873 10870
10931 10932 10933 10929 10931 10930 10930 10929 10929 10927 10926 10924 10922 10918 10921 10920 10921 10922 10921 10920 10917 10915 10914 10914 10912 10910 10908 10907 10907 10906 10904 10902 10900 10898 10896 10893 10890 10887 10885 10883 10882 10880 10877 10876 10873 10871 10869 10865 10862
10928 10928 10929 10925 10927 10928 10926 10926 10925 10923 10922 10919 10915 10914 10917 10914 10915 10916 10914 10911 10909 10908 10907 10907 10906 10904 10903 10902 10900 10900 10898 10895 10894 10891 10889 10886 10884 10882 10879 10877 10876 10874 10871 10869 10866 10863 10860 10858 10855
10925 10925 10924 10922 10925 10924 10924 10922 10919 10918 10917 10916 10914 10913 10913 10914 10915 10913 10910 10907 10904 10902 10900 10899 10899 10898 10897 10896 10895 10893 10891 10889 10887 10885 10882 10879 10877 10875 10873 10871 10869 10867 10864 10861 10858 10855 10852 10849 10845
10921 10921 10920 10919 10919 10919 10919 10919 10918 10916 10914 10912 10909 10907 10908 10908 10909 10907 10905 10902 10901 10897 10894 10892 10892 10892 10891 10890 10889 10887 10884 10883 10880 10877 10875 10872 10870 10869 10867 10865 10862 10859 10856 10853 10850 10847 10843 10839 10835
10916 10916 10915 10915 10915 10916 10918 10917 10914 10912 10909 10908 10905 10903 10904 10903 10903 10900 10900 10898 10895 10892 10889 10886 10885 10885 10885 10884 10882 10880 10878 10875 10873 10870 10868 10865 10864 10861 10859 10857 10854 10851 10848 10845 10842 10839 10835 10831 10827
10911 10911 10912 10911 10912 10911 10911 10911 10909 10906 10904 10901 10898 10898 10898 10896 10898 10895 10893 10891 10890 10887 10884 10881 10879 10878 10878 10876 10874 10873 10871 10868 10866 10864 10861 10859 10857 10854 10853 10850 10847 10843 10840 10838 10834 10830 10826 10822 10819
10907 10907 10906 10905 10905 10905 10905 10906 10905 10902 10898 10896 10893 10893 10893 10891 10893 10890 10887 10885 10883 10881 10879 10875 10873 10872 10871 10869 10867 10866 10864 10862 10860 10857 10855 10853 10850 10848 10846 10843 10840 10837 10833 10830 10826 10822 10819 10815 10812
10900 10901 10900 10900 10900 10900 10899 10898 10898 10898 10893 10891 10888 10888 10889 10887 10887 10885 10881 10879 10877 10874 10872 10868 10866 10865 10864 10863 10861 10859 10858 10856 10854 10851 10849 10847 10845 10842 10841 10839 10835 10831 10828 10824 10820 10815 10811 10808 10804
10894 10895 10895 10895 10895 10895 10892 10892 10891 10894 10890 10887 10882 10879 10881 10881 10880 10877 10876 10873 10871 10868 10865 10862 10860 10859 10858 10856 10855 10854 10852 10850 10848 10845 10843 10841 10840 10838 10837 10833 10828 10822 10818 10816 10812 10807 10803 10799 10796
10889 10889 10890 10889 10889 10889 10886 10886 10886 10888 10887 10885 10878 10874 10874 10873 10873 10869 10869 10867 10865 10863 10860 10856 10854 10854 10853 10852 10850 10848 10846 10845 10842 10840 10838 10836 10834 10832 10829 10824 10821 10817 10813 10807 10803 10798 10795 10792 10788
10882 10882 10882 10882 10884 10883 10881 10881 10881 10881 10881 10880 10876 10869 10866 10867 10866 10865 10861 10862 10859 10857 10855 10852 10850 10849 10847 10846 10844 10842 10841 10840 10839 10837 10834 10831 10828 10825 10821 10820 10817 10812 10807 10801 10795 10791 10787 10783 10780
10875 10875 10875 10876 10877 10877 10873 10872 10873 10875 10877 10875 10872 10867 10859 10855 10859 10858 10856 10855 10854 10852 10850 10848 10846 10845 10844 10841 10839 10838 10837 10835 10833 10831 10829 10826 10824 10821 10819 10819 10814 10818 10806 10799 10790 10783 10778 10774 10771
10869 10867 10866 10868 10868 10869 10865 10862 10867 10871 10872 10870 10866 10860 10854 10849 10848 10850 10849 10847 10846 10846 10844 10843 10841 10840 10839 10837 10834 10832 10830 10828 10827 10824 10823 10822 10819 10817 10816 10815 10817 10811 10804 10799 10789 10777 10769 10764 10760
10862 10861 10859 10861 10862 10860 10858 10855 10861 10864 10865 10861 10860 10857 10851 10844 10840 10842 10841 10841 10839 10839 10838 10836 10835 10833 10832 10829 10827 10826 10823 10820 10818 10816 10815 10813 10812 10811 10809 10809 10808 10802 10796 10789 10780 10769 10760 10755 10750
10855 10853 10852 10852 10855 10855 10854 10850 10856 10857 10854 10852 10851 10850 10846 10842 10837 10834 10833 10834 10834 10833 10832 10830 10828 10825 10824 10821 10820 10818 10816 10813 10810 10808 10807 10806 10804 10801 10800 10801 10801 10798 10785 10778 10768 10759 10751 10745 10739
10848 10847 10846 10845 10846 10850 10848 10845 10848 10848 10846 10844 10842 10840 10839 10837 10832 10829 10827 10826 10825 10825 10824 10823 10822 10820 10818 10815 10814 10811 10808 10805 10803 10802 10802 10800 10796 10792 10793 10793 10791 10787 10776 10765 10753 10745 10740 10733 10727
10840 10840 10839 10838 10838 10842 10839 10840 10840 10837 10836 10836 10832 10831 10828 10827 10825 10821 10819 10819 10818 10818 10815 10814 10813 10812 10811 10807 10806 10806 10803 10801 10797 10796 10796 10792 10788 10785 10785 10787 10786 10775 10763 10753 10739 10734 10727 10720 10712
10832 10832 10830 10830 10830 10830 10830 10831 10829 10825 10823 10824 10821 10817 10817 10817 10816 10811 10809 10806 10806 10804 10804 10805 10803 10801 10801 10798 10799 10799 10799 10795 10792 10788 10786 10783 10781 10776 10777 10777 10778 10760 10747 10737 10728 10721 10713 10704 10698
10824 10822 10822 10822 10821 10819 10820 10819 10819 10815 10811 10811 10807 10804 10805 10805 10803 10802 10799 10795 10794 10791 10788 10791 10788 10790 10791 10792 10793 10792 10790 10788 10787 10783 10780 10777 10772 10769 10766 10760 10750 10741 10732 10723 10715 10707 10697 10688 10683
10815 10815 10814 10812 10813 10811 10810 10809 10807 10804 10800 10798 10795 10792 10792 10792 10789 10788 10786 10782 10781 10775 10776 10777 10777 10778 10779 10782 10782 10780 10777 10776 10774 10770 10768 10765 10757 10754 10752 10741 10734 10725 10716 10707 10699 10691 10683 10675 10670
10809 10807 10805 10805 10806 10806 10804 10803 10801 10798 10794 10792 10789 10783 10779 10777 10774 10774 10771 10771 10769 10763 10765 10764 10765 10766 10769 10770 10770 10769 10768 10764 10757 10754 10750 10747 10741 10738 10733 10726 10717 10708 10701 10693 10685 10678 10670 10662 10654
10803 10802 10801 10800 10801 10803 10802 10801 10797 10794 10792 10788 10784 10780 10774 10769 10765 10762 10760 10758 10754 10754 10751 10750 10751 10757 10763 10763 10762 10756 10753 10752 10749 10743 10735 10728 10722 10717 10711 10705 10700 10691 10686 10681 10673 10663 10655 10644 10636
10800 10800 10799 10797 10795 10794 10796 10795 10793 10790 10786 10782 10777 10773 10768 10765 10761 10758 10755 10751 10746 10745 10744 10743 10747 10752 10757 10756 10756 10754 10746 10743 10736 10730 10724 10715 10710 10705 10699 10690 10683 10680 10676 10669 10658 10648 10639 10629 10620
10796 10795 10794 10794 10791 10787 10782 10785 10784 10785 10781 10775 10771 10767 10763 10759 10754 10751 10747 10744 10741 10738 10736 10738 10744 10741 10734 10737 10738 10738 10734 10734 10722 10717 10711 10706 10697 10690 10684 10676 10672 10666 10662 10654 10645 10635 10625 10615 10605
10791 10789 10788 10787 10786 10783 10780 10772 10773 10775 10772 10767 10763 10759 10755 10751 10748 10743 10738 10734 10730 10728 10726 10730 10725 10720 10718 10720 10715 10711 10721 10708 10703 10700 10696 10692 10683 10675 10670 10663 10657 10653 10646 10640 10633 10623 10612 10602 10592